Year,Month,Day,Hour,Minute,Value (Times are PST for temperature in C)
2012,08,05,00,00,26.70
2012,08,05,00,01,26.70
2012,08,05,00,02,26.60
2012,08,05,00,03,26.60
2012,08,05,00,04,26.50
2012,08,05,00,05,26.50
2012,08,05,00,06,26.50
2012,08,05,00,07,26.40
2012,08,05,00,08,26.40
2012,08,05,00,09,26.40
2012,08,05,00,10,26.40
2012,08,05,00,11,26.30
2012,08,05,00,12,26.30
2012,08,05,00,13,26.30
2012,08,05,00,14,26.30
2012,08,05,00,15,26.30
2012,08,05,00,16,26.30
2012,08,05,00,17,26.20
2012,08,05,00,18,26.20
2012,08,05,00,19,26.20
2012,08,05,00,20,26.10
2012,08,05,00,21,26.10
2012,08,05,00,22,26.10
2012,08,05,00,23,26.10
2012,08,05,00,24,26.00
2012,08,05,00,25,26.00
2012,08,05,00,26,25.90
2012,08,05,00,27,25.90
2012,08,05,00,28,25.80
2012,08,05,00,29,25.80
2012,08,05,00,30,25.80
2012,08,05,00,31,25.70
2012,08,05,00,32,25.70
2012,08,05,00,33,25.60
2012,08,05,00,34,25.60
2012,08,05,00,35,25.60
2012,08,05,00,36,25.50
2012,08,05,00,37,25.50
2012,08,05,00,38,25.50
2012,08,05,00,39,25.40
2012,08,05,00,40,25.40
2012,08,05,00,41,25.30
2012,08,05,00,42,25.30
2012,08,05,00,43,25.30
2012,08,05,00,44,25.20
2012,08,05,00,45,25.20
2012,08,05,00,46,25.10
2012,08,05,00,47,25.10
2012,08,05,00,48,25.10
2012,08,05,00,49,25.00
2012,08,05,00,50,25.00
2012,08,05,00,51,24.90
2012,08,05,00,52,24.90
2012,08,05,00,53,24.90
2012,08,05,00,54,24.90
2012,08,05,00,55,24.80
2012,08,05,00,56,24.80
2012,08,05,00,57,24.80
2012,08,05,00,58,24.80
2012,08,05,00,59,24.70
2012,08,05,01,00,24.70
2012,08,05,01,01,24.70
2012,08,05,01,02,24.70
2012,08,05,01,03,24.60
2012,08,05,01,04,24.60
2012,08,05,01,05,24.60
2012,08,05,01,06,24.60
2012,08,05,01,07,24.60
2012,08,05,01,08,24.60
2012,08,05,01,09,24.50
2012,08,05,01,10,24.50
2012,08,05,01,11,24.50
2012,08,05,01,12,24.40
2012,08,05,01,13,24.40
2012,08,05,01,14,24.40
2012,08,05,01,15,24.40
2012,08,05,01,16,24.30
2012,08,05,01,17,24.30
2012,08,05,01,18,24.30
2012,08,05,01,19,24.20
2012,08,05,01,20,24.20
2012,08,05,01,21,24.20
2012,08,05,01,22,24.20
2012,08,05,01,23,24.10
2012,08,05,01,24,24.10
2012,08,05,01,25,24.10
2012,08,05,01,26,24.00
2012,08,05,01,27,24.00
2012,08,05,01,28,23.90
2012,08,05,01,29,23.90
2012,08,05,01,30,23.90
2012,08,05,01,31,23.90
2012,08,05,01,32,23.90
2012,08,05,01,33,23.90
2012,08,05,01,34,23.80
2012,08,05,01,35,23.80
2012,08,05,01,36,23.80
2012,08,05,01,37,23.80
2012,08,05,01,38,23.80
2012,08,05,01,39,23.80
2012,08,05,01,40,23.80
2012,08,05,01,41,23.80
2012,08,05,01,42,23.80
2012,08,05,01,43,23.70
2012,08,05,01,44,23.70
2012,08,05,01,45,23.70
2012,08,05,01,46,23.70
2012,08,05,01,47,23.70
2012,08,05,01,48,23.70
2012,08,05,01,49,23.70
2012,08,05,01,50,23.70
2012,08,05,01,51,23.60
2012,08,05,01,52,23.60
2012,08,05,01,53,23.60
2012,08,05,01,54,23.60
2012,08,05,01,55,23.60
2012,08,05,01,56,23.60
2012,08,05,01,57,23.50
2012,08,05,01,58,23.50
2012,08,05,01,59,23.40
2012,08,05,02,00,23.40
2012,08,05,02,01,23.40
2012,08,05,02,02,23.40
2012,08,05,02,03,23.40
2012,08,05,02,04,23.30
2012,08,05,02,05,23.30
2012,08,05,02,06,23.30
2012,08,05,02,07,23.30
2012,08,05,02,08,23.30
2012,08,05,02,09,23.20
2012,08,05,02,10,23.20
2012,08,05,02,11,23.20
2012,08,05,02,12,23.20
2012,08,05,02,13,23.10
2012,08,05,02,14,23.10
2012,08,05,02,15,23.10
2012,08,05,02,16,23.10
2012,08,05,02,17,23.10
2012,08,05,02,18,23.10
2012,08,05,02,19,23.00
2012,08,05,02,20,23.00
2012,08,05,02,21,23.00
2012,08,05,02,22,23.00
2012,08,05,02,23,23.00
2012,08,05,02,24,22.90
2012,08,05,02,25,22.90
2012,08,05,02,26,22.90
2012,08,05,02,27,22.90
2012,08,05,02,28,22.90
2012,08,05,02,29,22.90
2012,08,05,02,30,22.90
2012,08,05,02,31,22.90
2012,08,05,02,32,22.90
2012,08,05,02,33,22.90
2012,08,05,02,34,22.80
2012,08,05,02,35,22.80
2012,08,05,02,36,22.80
2012,08,05,02,37,22.80
2012,08,05,02,38,22.80
2012,08,05,02,39,22.80
2012,08,05,02,40,22.80
2012,08,05,02,41,22.80
2012,08,05,02,42,22.70
2012,08,05,02,43,22.70
2012,08,05,02,44,22.70
2012,08,05,02,45,22.70
2012,08,05,02,46,22.70
2012,08,05,02,47,22.70
2012,08,05,02,48,22.70
2012,08,05,02,49,22.60
2012,08,05,02,50,22.60
2012,08,05,02,51,22.60
2012,08,05,02,52,22.60
2012,08,05,02,53,22.60
2012,08,05,02,54,22.50
2012,08,05,02,55,22.50
2012,08,05,02,56,22.50
2012,08,05,02,57,22.50
2012,08,05,02,58,22.40
2012,08,05,02,59,22.40
2012,08,05,03,00,22.40
2012,08,05,03,01,22.40
2012,08,05,03,02,22.40
2012,08,05,03,03,22.30
2012,08,05,03,06,22.30
2012,08,05,03,07,22.30
2012,08,05,03,08,22.30
2012,08,05,03,09,22.30
2012,08,05,03,10,22.20
2012,08,05,03,11,22.20
2012,08,05,03,12,22.20
2012,08,05,03,13,22.20
2012,08,05,03,14,22.20
2012,08,05,03,15,22.20
2012,08,05,03,16,22.10
2012,08,05,03,17,22.10
2012,08,05,03,18,22.10
2012,08,05,03,19,22.10
2012,08,05,03,20,22.10
2012,08,05,03,21,22.00
2012,08,05,03,22,22.00
2012,08,05,03,23,22.00
2012,08,05,03,24,21.90
2012,08,05,03,25,21.90
2012,08,05,03,26,21.90
2012,08,05,03,27,21.90
2012,08,05,03,28,21.90
2012,08,05,03,29,21.90
2012,08,05,03,30,21.90
2012,08,05,03,31,21.90
2012,08,05,03,32,21.80
2012,08,05,03,33,21.80
2012,08,05,03,34,21.80
2012,08,05,03,35,21.80
2012,08,05,03,36,21.80
2012,08,05,03,37,21.80
2012,08,05,03,38,21.80
2012,08,05,03,39,21.80
2012,08,05,03,40,21.80
2012,08,05,03,41,21.80
2012,08,05,03,42,21.80
2012,08,05,03,43,21.80
2012,08,05,03,44,21.80
2012,08,05,03,45,21.80
2012,08,05,03,46,21.70
2012,08,05,03,47,21.70
2012,08,05,03,48,21.70
2012,08,05,03,49,21.70
2012,08,05,03,50,21.70
2012,08,05,03,51,21.70
2012,08,05,03,52,21.70
2012,08,05,03,53,21.70
2012,08,05,03,54,21.70
2012,08,05,03,55,21.70
2012,08,05,03,56,21.70
2012,08,05,03,57,21.70
2012,08,05,03,58,21.70
2012,08,05,03,59,21.70
2012,08,05,04,00,21.80
2012,08,05,04,01,21.80
2012,08,05,04,02,21.80
2012,08,05,04,03,21.80
2012,08,05,04,04,21.80
2012,08,05,04,05,21.80
2012,08,05,04,06,21.90
2012,08,05,04,07,21.90
2012,08,05,04,08,21.90
2012,08,05,04,09,21.90
2012,08,05,04,10,21.90
2012,08,05,04,11,21.90
2012,08,05,04,12,21.90
2012,08,05,04,13,21.90
2012,08,05,04,14,21.90
2012,08,05,04,15,21.90
2012,08,05,04,16,21.90
2012,08,05,04,17,21.80
2012,08,05,04,18,21.80
2012,08,05,04,19,21.80
2012,08,05,04,20,21.70
2012,08,05,04,21,21.70
2012,08,05,04,22,21.60
2012,08,05,04,23,21.60
2012,08,05,04,24,21.50
2012,08,05,04,25,21.40
2012,08,05,04,26,21.40
2012,08,05,04,27,21.30
2012,08,05,04,28,21.30
2012,08,05,04,29,21.30
2012,08,05,04,30,21.20
2012,08,05,04,31,21.20
2012,08,05,04,32,21.20
2012,08,05,04,33,21.10
2012,08,05,04,34,21.10
2012,08,05,04,35,21.10
2012,08,05,04,36,21.10
2012,08,05,04,37,21.00
2012,08,05,04,38,21.00
2012,08,05,04,39,21.00
2012,08,05,04,40,20.90
2012,08,05,04,41,20.90
2012,08,05,04,42,20.90
2012,08,05,04,43,20.90
2012,08,05,04,44,20.80
2012,08,05,04,45,20.80
2012,08,05,04,46,20.80
2012,08,05,04,47,20.80
2012,08,05,04,48,20.80
2012,08,05,04,49,20.70
2012,08,05,04,50,20.70
2012,08,05,04,51,20.70
2012,08,05,04,52,20.70
2012,08,05,04,53,20.70
2012,08,05,04,54,20.70
2012,08,05,04,55,20.70
2012,08,05,04,56,20.70
2012,08,05,04,57,20.70
2012,08,05,04,58,20.80
2012,08,05,04,59,20.80
2012,08,05,05,00,20.80
2012,08,05,05,01,20.90
2012,08,05,05,02,20.90
2012,08,05,05,03,21.00
2012,08,05,05,04,21.10
2012,08,05,05,05,21.10
2012,08,05,05,06,21.20
2012,08,05,05,07,21.20
2012,08,05,05,08,21.20
2012,08,05,05,09,21.30
2012,08,05,05,10,21.30
2012,08,05,05,11,21.30
2012,08,05,05,12,21.30
2012,08,05,05,13,21.30
2012,08,05,05,14,21.20
2012,08,05,05,15,21.20
2012,08,05,05,16,21.10
2012,08,05,05,17,21.10
2012,08,05,05,18,21.00
2012,08,05,05,19,20.90
2012,08,05,05,20,20.90
2012,08,05,05,21,20.80
2012,08,05,05,22,20.80
2012,08,05,05,23,20.80
2012,08,05,05,24,20.80
2012,08,05,05,25,20.80
2012,08,05,05,26,20.80
2012,08,05,05,27,20.80
2012,08,05,05,28,20.90
2012,08,05,05,29,20.90
2012,08,05,05,30,21.00
2012,08,05,05,31,21.00
2012,08,05,05,32,21.10
2012,08,05,05,33,21.10
2012,08,05,05,34,21.10
2012,08,05,05,35,21.10
2012,08,05,05,36,21.10
2012,08,05,05,37,21.10
2012,08,05,05,38,21.10
2012,08,05,05,39,21.10
2012,08,05,05,40,21.10
2012,08,05,05,41,21.10
2012,08,05,05,42,21.10
2012,08,05,05,43,21.10
2012,08,05,05,44,21.10
2012,08,05,05,45,21.10
2012,08,05,05,46,21.10
2012,08,05,05,47,21.10
2012,08,05,05,48,21.10
2012,08,05,05,49,21.10
2012,08,05,05,50,21.00
2012,08,05,05,51,21.00
2012,08,05,05,52,21.00
2012,08,05,05,53,20.90
2012,08,05,05,54,20.90
2012,08,05,05,55,20.90
2012,08,05,05,56,20.90
2012,08,05,05,57,20.90
2012,08,05,05,58,20.90
2012,08,05,05,59,20.90
2012,08,05,06,00,20.80
2012,08,05,06,01,20.80
2012,08,05,06,02,20.80
2012,08,05,06,03,20.80
2012,08,05,06,04,20.80
2012,08,05,06,05,20.80
2012,08,05,06,06,20.80
2012,08,05,06,07,20.80
2012,08,05,06,08,20.80
2012,08,05,06,09,20.80
2012,08,05,06,10,20.90
2012,08,05,06,11,20.90
2012,08,05,06,12,20.90
2012,08,05,06,13,20.90
2012,08,05,06,14,20.90
2012,08,05,06,15,20.90
2012,08,05,06,16,20.90
2012,08,05,06,17,20.90
2012,08,05,06,18,20.90
2012,08,05,06,19,20.90
2012,08,05,06,20,20.90
2012,08,05,06,21,21.00
2012,08,05,06,22,21.00
2012,08,05,06,23,21.00
2012,08,05,06,24,21.00
2012,08,05,06,25,21.10
2012,08,05,06,26,21.10
2012,08,05,06,27,21.10
2012,08,05,06,28,21.10
2012,08,05,06,29,21.10
2012,08,05,06,30,21.20
2012,08,05,06,31,21.20
2012,08,05,06,32,21.20
2012,08,05,06,33,21.20
2012,08,05,06,34,21.30
2012,08,05,06,35,21.30
2012,08,05,06,36,21.30
2012,08,05,06,37,21.30
2012,08,05,06,38,21.30
2012,08,05,06,39,21.30
2012,08,05,06,40,21.40
2012,08,05,06,41,21.40
2012,08,05,06,42,21.50
2012,08,05,06,43,21.50
2012,08,05,06,44,21.50
2012,08,05,06,45,21.60
2012,08,05,06,46,21.60
2012,08,05,06,47,21.60
2012,08,05,06,48,21.70
2012,08,05,06,49,21.70
2012,08,05,06,50,21.70
2012,08,05,06,51,21.70
2012,08,05,06,52,21.80
2012,08,05,06,53,21.80
2012,08,05,06,54,21.80
2012,08,05,06,55,21.80
2012,08,05,06,56,21.80
2012,08,05,06,57,21.80
2012,08,05,06,58,21.90
2012,08,05,06,59,21.90
2012,08,05,07,00,21.90
2012,08,05,07,01,21.90
2012,08,05,07,02,21.90
2012,08,05,07,03,22.00
2012,08,05,07,04,22.00
2012,08,05,07,05,22.00
2012,08,05,07,06,22.10
2012,08,05,07,07,22.10
2012,08,05,07,08,22.10
2012,08,05,07,09,22.10
2012,08,05,07,10,22.10
2012,08,05,07,11,22.20
2012,08,05,07,12,22.20
2012,08,05,07,13,22.20
2012,08,05,07,14,22.20
2012,08,05,07,15,22.20
2012,08,05,07,16,22.20
2012,08,05,07,17,22.20
2012,08,05,07,18,22.20
2012,08,05,07,19,22.20
2012,08,05,07,20,22.20
2012,08,05,07,21,22.20
2012,08,05,07,22,22.20
2012,08,05,07,23,22.20
2012,08,05,07,24,22.20
2012,08,05,07,25,22.20
2012,08,05,07,26,22.10
2012,08,05,07,27,22.10
2012,08,05,07,28,22.10
2012,08,05,07,29,22.10
2012,08,05,07,30,22.10
2012,08,05,07,31,22.10
2012,08,05,07,32,22.10
2012,08,05,07,33,22.10
2012,08,05,07,34,22.10
2012,08,05,07,35,22.10
2012,08,05,07,36,22.10
2012,08,05,07,37,22.00
2012,08,05,07,38,22.00
2012,08,05,07,39,21.90
2012,08,05,07,40,21.90
2012,08,05,07,41,21.90
2012,08,05,07,42,21.90
2012,08,05,07,43,21.80
2012,08,05,07,44,21.80
2012,08,05,07,45,21.80
2012,08,05,07,46,21.80
2012,08,05,07,47,21.80
2012,08,05,07,48,21.80
2012,08,05,07,49,21.80
2012,08,05,07,50,21.80
2012,08,05,07,51,21.80
2012,08,05,07,52,21.80
2012,08,05,07,53,21.80
2012,08,05,07,54,21.80
2012,08,05,07,55,21.80
2012,08,05,07,56,21.80
2012,08,05,07,57,21.80
2012,08,05,07,58,21.80
2012,08,05,07,59,21.80
2012,08,05,08,00,21.80
2012,08,05,08,01,21.90
2012,08,05,08,02,21.90
2012,08,05,08,03,21.90
2012,08,05,08,04,21.90
2012,08,05,08,05,21.90
2012,08,05,08,06,21.90
2012,08,05,08,07,21.90
2012,08,05,08,08,22.00
2012,08,05,08,09,22.00
2012,08,05,08,10,22.10
2012,08,05,08,11,22.10
2012,08,05,08,12,22.10
2012,08,05,08,13,22.20
2012,08,05,08,14,22.20
2012,08,05,08,15,22.30
2012,08,05,08,16,22.30
2012,08,05,08,17,22.30
2012,08,05,08,18,22.40
2012,08,05,08,19,22.40
2012,08,05,08,20,22.40
2012,08,05,08,21,22.40
2012,08,05,08,22,22.40
2012,08,05,08,23,22.40
2012,08,05,08,24,22.50
2012,08,05,08,25,22.50
2012,08,05,08,26,22.50
2012,08,05,08,27,22.50
2012,08,05,08,28,22.50
2012,08,05,08,29,22.50
2012,08,05,08,30,22.50
2012,08,05,08,31,22.50
2012,08,05,08,32,22.50
2012,08,05,08,33,22.50
2012,08,05,08,34,22.60
2012,08,05,08,35,22.60
2012,08,05,08,36,22.60
2012,08,05,08,37,22.60
2012,08,05,08,38,22.60
2012,08,05,08,39,22.60
2012,08,05,08,40,22.60
2012,08,05,08,41,22.70
2012,08,05,08,42,22.70
2012,08,05,08,43,22.70
2012,08,05,08,44,22.70
2012,08,05,08,45,22.70
2012,08,05,08,46,22.70
2012,08,05,08,47,22.70
2012,08,05,08,48,22.70
2012,08,05,08,49,22.70
2012,08,05,08,50,22.70
2012,08,05,08,51,22.70
2012,08,05,08,52,22.70
2012,08,05,08,53,22.70
2012,08,05,08,54,22.70
2012,08,05,08,55,22.70
2012,08,05,08,56,22.70
2012,08,05,08,57,22.70
2012,08,05,08,58,22.70
2012,08,05,08,59,22.70
2012,08,05,09,00,22.70
2012,08,05,09,01,22.70
2012,08,05,09,02,22.70
2012,08,05,09,03,22.70
2012,08,05,09,04,22.70
2012,08,05,09,05,22.80
2012,08,05,09,06,22.80
2012,08,05,09,07,22.80
2012,08,05,09,08,22.70
2012,08,05,09,09,22.70
2012,08,05,09,10,22.60
2012,08,05,09,11,22.60
2012,08,05,09,12,22.50
2012,08,05,09,13,22.50
2012,08,05,09,14,22.50
2012,08,05,09,15,22.60
2012,08,05,09,16,22.60
2012,08,05,09,17,22.50
2012,08,05,09,18,22.50
2012,08,05,09,19,22.50
2012,08,05,09,20,22.50
2012,08,05,09,21,22.50
2012,08,05,09,22,22.50
2012,08,05,09,23,22.60
2012,08,05,09,24,22.60
2012,08,05,09,25,22.60
2012,08,05,09,26,22.70
2012,08,05,09,27,22.80
2012,08,05,09,28,22.80
2012,08,05,09,29,22.80
2012,08,05,09,30,22.80
2012,08,05,09,31,22.80
2012,08,05,09,32,22.80
2012,08,05,09,33,22.80
2012,08,05,09,34,22.90
2012,08,05,09,35,22.80
2012,08,05,09,36,22.80
2012,08,05,09,37,22.90
2012,08,05,09,38,22.90
2012,08,05,09,39,22.90
2012,08,05,09,40,22.90
2012,08,05,09,41,22.90
2012,08,05,09,42,22.90
2012,08,05,09,43,22.90
2012,08,05,09,44,22.90
2012,08,05,09,45,22.90
2012,08,05,09,46,22.90
2012,08,05,09,47,22.80
2012,08,05,09,48,22.80
2012,08,05,09,49,22.80
2012,08,05,09,50,22.70
2012,08,05,09,51,22.80
2012,08,05,09,52,22.80
2012,08,05,09,53,22.80
2012,08,05,09,54,22.90
2012,08,05,09,55,22.80
2012,08,05,09,56,22.80
2012,08,05,09,57,22.80
2012,08,05,09,58,22.80
2012,08,05,09,59,22.80
2012,08,05,10,00,22.80
2012,08,05,10,01,22.80
2012,08,05,10,02,22.80
2012,08,05,10,03,22.90
2012,08,05,10,04,22.90
2012,08,05,10,05,23.00
2012,08,05,10,06,23.00
2012,08,05,10,07,23.10
2012,08,05,10,08,23.10
2012,08,05,10,09,23.00
2012,08,05,10,10,23.00
2012,08,05,10,11,23.00
2012,08,05,10,12,23.10
2012,08,05,10,13,23.10
2012,08,05,10,14,23.10
2012,08,05,10,15,23.20
2012,08,05,10,16,23.20
2012,08,05,10,17,23.10
2012,08,05,10,18,23.10
2012,08,05,10,19,23.10
2012,08,05,10,20,23.10
2012,08,05,10,21,23.10
2012,08,05,10,22,23.10
2012,08,05,10,23,23.10
2012,08,05,10,24,23.10
2012,08,05,10,25,23.20
2012,08,05,10,26,23.20
2012,08,05,10,27,23.30
2012,08,05,10,28,23.30
2012,08,05,10,29,23.30
2012,08,05,10,30,23.20
2012,08,05,10,31,23.20
2012,08,05,10,32,23.10
2012,08,05,10,33,23.00
2012,08,05,10,34,23.00
2012,08,05,10,35,23.00
2012,08,05,10,36,23.00
2012,08,05,10,37,23.10
2012,08,05,10,38,23.10
2012,08,05,10,39,23.20
2012,08,05,10,40,23.20
2012,08,05,10,41,23.30
2012,08,05,10,42,23.40
2012,08,05,10,43,23.40
2012,08,05,10,44,23.50
2012,08,05,10,45,23.50
2012,08,05,10,46,23.60
2012,08,05,10,47,23.60
2012,08,05,10,48,23.60
2012,08,05,10,49,23.60
2012,08,05,10,50,23.50
2012,08,05,10,51,23.50
2012,08,05,10,52,23.50
2012,08,05,10,53,23.50
2012,08,05,10,54,23.50
2012,08,05,10,55,23.50
2012,08,05,10,56,23.40
2012,08,05,10,57,23.40
2012,08,05,10,58,23.40
2012,08,05,10,59,23.40
2012,08,05,11,00,23.40
2012,08,05,11,01,23.40
2012,08,05,11,02,23.40
2012,08,05,11,03,23.40
2012,08,05,11,04,23.40
2012,08,05,11,05,23.40
2012,08,05,11,06,23.40
2012,08,05,11,07,23.40
2012,08,05,11,08,23.40
2012,08,05,11,09,23.40
2012,08,05,11,10,23.40
2012,08,05,11,11,23.40
2012,08,05,11,12,23.40
2012,08,05,11,13,23.40
2012,08,05,11,14,23.40
2012,08,05,11,15,23.40
2012,08,05,11,16,23.40
2012,08,05,11,17,23.40
2012,08,05,11,18,23.40
2012,08,05,11,19,23.30
2012,08,05,11,20,23.30
2012,08,05,11,21,23.30
2012,08,05,11,22,23.40
2012,08,05,11,23,23.40
2012,08,05,11,24,23.40
2012,08,05,11,25,23.30
2012,08,05,11,26,23.30
2012,08,05,11,27,23.30
2012,08,05,11,28,23.40
2012,08,05,11,29,23.50
2012,08,05,11,30,23.50
2012,08,05,11,31,23.60
2012,08,05,11,32,23.60
2012,08,05,11,33,23.60
2012,08,05,11,34,23.70
2012,08,05,11,35,23.70
2012,08,05,11,36,23.70
2012,08,05,11,37,23.80
2012,08,05,11,38,23.80
2012,08,05,11,39,23.80
2012,08,05,11,40,23.80
2012,08,05,11,41,23.80
2012,08,05,11,42,23.80
2012,08,05,11,43,23.80
2012,08,05,11,44,23.80
2012,08,05,11,45,23.90
2012,08,05,11,46,23.90
2012,08,05,11,47,23.80
2012,08,05,11,48,23.80
2012,08,05,11,49,23.90
2012,08,05,11,50,23.90
2012,08,05,11,51,23.90
2012,08,05,11,52,23.90
2012,08,05,11,53,24.00
2012,08,05,11,54,24.00
2012,08,05,11,55,24.00
2012,08,05,11,56,24.00
2012,08,05,11,57,24.00
2012,08,05,11,58,23.90
2012,08,05,11,59,23.90
2012,08,05,12,00,23.90
2012,08,05,12,01,23.90
2012,08,05,12,02,23.90
2012,08,05,12,03,23.90
2012,08,05,12,04,23.90
2012,08,05,12,05,23.90
2012,08,05,12,06,23.90
2012,08,05,12,07,24.00
2012,08,05,12,08,24.10
2012,08,05,12,09,24.10
2012,08,05,12,10,24.20
2012,08,05,12,11,24.30
2012,08,05,12,12,24.30
2012,08,05,12,13,24.30
2012,08,05,12,14,24.30
2012,08,05,12,15,24.30
2012,08,05,12,16,24.30
2012,08,05,12,17,24.40
2012,08,05,12,18,24.40
2012,08,05,12,19,24.40
2012,08,05,12,20,24.40
2012,08,05,12,21,24.40
2012,08,05,12,22,24.40
2012,08,05,12,23,24.40
2012,08,05,12,24,24.40
2012,08,05,12,25,24.40
2012,08,05,12,26,24.30
2012,08,05,12,27,24.30
2012,08,05,12,28,24.40
2012,08,05,12,29,24.40
2012,08,05,12,30,24.50
2012,08,05,12,31,24.60
2012,08,05,12,32,24.70
2012,08,05,12,33,24.70
2012,08,05,12,34,24.80
2012,08,05,12,35,24.80
2012,08,05,12,36,24.90
2012,08,05,12,37,25.00
2012,08,05,12,38,25.10
2012,08,05,12,39,25.20
2012,08,05,12,40,25.20
2012,08,05,12,41,25.20
2012,08,05,12,42,25.20
2012,08,05,12,43,25.10
2012,08,05,12,44,25.10
2012,08,05,12,45,25.00
2012,08,05,12,46,25.00
2012,08,05,12,47,25.00
2012,08,05,12,48,25.00
2012,08,05,12,49,25.00
2012,08,05,12,50,25.00
2012,08,05,12,51,25.10
2012,08,05,12,52,25.20
2012,08,05,12,53,25.30
2012,08,05,12,54,25.30
2012,08,05,12,55,25.40
2012,08,05,12,56,25.40
2012,08,05,12,57,25.30
2012,08,05,12,58,25.30
2012,08,05,12,59,25.30
2012,08,05,13,00,25.30
2012,08,05,13,01,25.40
2012,08,05,13,02,25.40
2012,08,05,13,03,25.50
2012,08,05,13,04,25.60
2012,08,05,13,05,25.60
2012,08,05,13,06,25.70
2012,08,05,13,07,25.70
2012,08,05,13,08,25.70
2012,08,05,13,09,25.60
2012,08,05,13,10,25.50
2012,08,05,13,11,25.50
2012,08,05,13,12,25.40
2012,08,05,13,13,25.40
2012,08,05,13,14,25.40
2012,08,05,13,15,25.50
2012,08,05,13,16,25.60
2012,08,05,13,17,25.60
2012,08,05,13,18,25.70
2012,08,05,13,19,25.70
2012,08,05,13,20,25.70
2012,08,05,13,21,25.80
2012,08,05,13,22,25.90
2012,08,05,13,23,25.90
2012,08,05,13,24,25.90
2012,08,05,13,25,25.80
2012,08,05,13,26,25.80
2012,08,05,13,27,25.70
2012,08,05,13,28,25.70
2012,08,05,13,29,25.70
2012,08,05,13,30,25.60
2012,08,05,13,31,25.50
2012,08,05,13,32,25.40
2012,08,05,13,33,25.40
2012,08,05,13,34,25.40
2012,08,05,13,35,25.40
2012,08,05,13,36,25.40
2012,08,05,13,37,25.50
2012,08,05,13,38,25.50
2012,08,05,13,39,25.60
2012,08,05,13,40,25.60
2012,08,05,13,41,25.70
2012,08,05,13,42,25.70
2012,08,05,13,43,25.80
2012,08,05,13,44,25.80
2012,08,05,13,45,25.80
2012,08,05,13,46,25.80
2012,08,05,13,47,25.80
2012,08,05,13,48,25.90
2012,08,05,13,49,25.90
2012,08,05,13,50,25.90
2012,08,05,13,51,25.90
2012,08,05,13,52,25.90
2012,08,05,13,53,25.90
2012,08,05,13,54,26.00
2012,08,05,13,55,26.00
2012,08,05,13,56,25.90
2012,08,05,13,57,25.90
2012,08,05,13,58,25.90
2012,08,05,13,59,25.90
2012,08,05,14,00,26.00
2012,08,05,14,01,26.00
2012,08,05,14,02,26.10
2012,08,05,14,03,26.20
2012,08,05,14,04,26.30
2012,08,05,14,05,26.40
2012,08,05,14,06,26.60
2012,08,05,14,07,26.80
2012,08,05,14,08,26.80
2012,08,05,14,09,26.80
2012,08,05,14,10,26.90
2012,08,05,14,11,26.90
2012,08,05,14,12,26.90
2012,08,05,14,13,27.00
2012,08,05,14,14,27.00
2012,08,05,14,15,27.00
2012,08,05,14,16,26.90
2012,08,05,14,17,26.90
2012,08,05,14,18,26.90
2012,08,05,14,19,26.90
2012,08,05,14,20,27.00
2012,08,05,14,21,26.90
2012,08,05,14,22,26.90
2012,08,05,14,23,27.00
2012,08,05,14,24,27.00
2012,08,05,14,25,27.10
2012,08,05,14,26,27.20
2012,08,05,14,27,27.20
2012,08,05,14,28,27.20
2012,08,05,14,29,27.30
2012,08,05,14,30,27.30
2012,08,05,14,31,27.30
2012,08,05,14,32,27.30
2012,08,05,14,33,27.30
2012,08,05,14,34,27.40
2012,08,05,14,35,27.50
2012,08,05,14,36,27.50
2012,08,05,14,37,27.50
2012,08,05,14,38,27.50
2012,08,05,14,39,27.50
2012,08,05,14,40,27.50
2012,08,05,14,41,27.50
2012,08,05,14,42,27.50
2012,08,05,14,43,27.60
2012,08,05,14,44,27.70
2012,08,05,14,45,27.80
2012,08,05,14,46,27.90
2012,08,05,14,47,28.00
2012,08,05,14,48,28.00
2012,08,05,14,49,27.90
2012,08,05,14,50,27.90
2012,08,05,14,51,27.90
2012,08,05,14,52,27.90
2012,08,05,14,53,27.90
2012,08,05,14,54,27.90
2012,08,05,14,55,28.00
2012,08,05,14,56,28.00
2012,08,05,14,57,28.00
2012,08,05,14,58,28.00
2012,08,05,14,59,28.00
2012,08,05,15,00,28.10
2012,08,05,15,01,28.10
2012,08,05,15,02,28.20
2012,08,05,15,03,28.20
2012,08,05,15,04,28.30
2012,08,05,15,05,28.40
2012,08,05,15,06,28.50
2012,08,05,15,07,28.60
2012,08,05,15,08,28.70
2012,08,05,15,09,28.80
2012,08,05,15,10,28.80
2012,08,05,15,11,28.90
2012,08,05,15,12,29.00
2012,08,05,15,13,29.00
2012,08,05,15,14,29.10
2012,08,05,15,15,29.10
2012,08,05,15,16,29.20
2012,08,05,15,17,29.30
2012,08,05,15,18,29.30
2012,08,05,15,19,29.30
2012,08,05,15,20,29.30
2012,08,05,15,21,29.30
2012,08,05,15,22,29.20
2012,08,05,15,23,29.20
2012,08,05,15,24,29.20
2012,08,05,15,25,29.10
2012,08,05,15,26,29.10
2012,08,05,15,27,29.10
2012,08,05,15,28,29.10
2012,08,05,15,29,29.10
2012,08,05,15,30,29.10
2012,08,05,15,31,29.10
2012,08,05,15,32,29.10
2012,08,05,15,33,29.10
2012,08,05,15,34,29.10
2012,08,05,15,35,29.10
2012,08,05,15,36,29.10
2012,08,05,15,37,29.10
2012,08,05,15,38,29.10
2012,08,05,15,39,29.10
2012,08,05,15,40,29.20
2012,08,05,15,41,29.20
2012,08,05,15,42,29.20
2012,08,05,15,43,29.10
2012,08,05,15,44,29.00
2012,08,05,15,45,28.80
2012,08,05,15,46,28.70
2012,08,05,15,47,28.60
2012,08,05,15,48,28.50
2012,08,05,15,49,28.30
2012,08,05,15,50,28.10
2012,08,05,15,51,27.90
2012,08,05,15,52,27.60
2012,08,05,15,53,27.40
2012,08,05,15,54,27.30
2012,08,05,15,55,27.20
2012,08,05,15,56,27.10
2012,08,05,15,57,27.10
2012,08,05,15,58,27.10
2012,08,05,15,59,27.20
2012,08,05,16,00,27.20
2012,08,05,16,01,27.30
2012,08,05,16,02,27.30
2012,08,05,16,03,27.30
2012,08,05,16,04,27.30
2012,08,05,16,05,27.30
2012,08,05,16,06,27.30
2012,08,05,16,07,27.30
2012,08,05,16,08,27.30
2012,08,05,16,09,27.40
2012,08,05,16,10,27.40
2012,08,05,16,11,27.40
2012,08,05,16,12,27.40
2012,08,05,16,13,27.40
2012,08,05,16,14,27.50
2012,08,05,16,15,27.50
2012,08,05,16,16,27.60
2012,08,05,16,17,27.60
2012,08,05,16,18,27.60
2012,08,05,16,19,27.70
2012,08,05,16,20,27.70
2012,08,05,16,21,27.70
2012,08,05,16,22,27.80
2012,08,05,16,23,27.80
2012,08,05,16,24,27.80
2012,08,05,16,25,27.80
2012,08,05,16,26,27.90
2012,08,05,16,27,27.90
2012,08,05,16,28,28.00
2012,08,05,16,29,28.00
2012,08,05,16,30,28.10
2012,08,05,16,31,28.10
2012,08,05,16,32,28.10
2012,08,05,16,33,28.20
2012,08,05,16,34,28.10
2012,08,05,16,35,28.10
2012,08,05,16,36,28.10
2012,08,05,16,37,28.20
2012,08,05,16,38,28.20
2012,08,05,16,39,28.20
2012,08,05,16,40,28.30
2012,08,05,16,41,28.30
2012,08,05,16,42,28.30
2012,08,05,16,43,28.40
2012,08,05,16,44,28.50
2012,08,05,16,45,28.50
2012,08,05,16,46,28.60
2012,08,05,16,47,28.60
2012,08,05,16,48,28.60
2012,08,05,16,49,28.60
2012,08,05,16,50,28.70
2012,08,05,16,51,28.70
2012,08,05,16,52,28.70
2012,08,05,16,53,28.80
2012,08,05,16,54,28.80
2012,08,05,16,55,28.80
2012,08,05,16,56,28.90
2012,08,05,16,57,28.90
2012,08,05,16,58,29.00
2012,08,05,16,59,29.10
2012,08,05,17,00,29.10
2012,08,05,17,01,29.10
2012,08,05,17,02,29.20
2012,08,05,17,03,29.20
2012,08,05,17,04,29.30
2012,08,05,17,05,29.30
2012,08,05,17,06,29.40
2012,08,05,17,07,29.40
2012,08,05,17,08,29.40
2012,08,05,17,09,29.40
2012,08,05,17,10,29.40
2012,08,05,17,11,29.40
2012,08,05,17,12,29.30
2012,08,05,17,13,29.20
2012,08,05,17,14,29.20
2012,08,05,17,15,29.20
2012,08,05,17,16,29.30
2012,08,05,17,17,29.30
2012,08,05,17,18,29.30
2012,08,05,17,19,29.30
2012,08,05,17,20,29.30
2012,08,05,17,21,29.30